Location: Friaudour
(46.0460°N, 1.2873°E)
Time: 04:44:31
(UTC+00:00)

Cosmos 1943 - Pass Details

Date: 14 July 2020
Orbit: 835 x 848 km, 71.0° (Epoch: 06 August)

Event Time Altitude Azimuth Distance (km) Brightness Sun altitude
Exits shadow 00:19:50 17° 250° (WSW) 1,999 4.9 -22.2°
Maximum altitude 00:23:31 35° 307° (NW) 1,337 4.5 -22.1°
Drops below altitude 10° 00:28:41 10° 13° (NNE) 2,468 6.8 -22.0°
Sets 00:31:22 0° 22° (NNE) 3,404 7.7 -22.0°
